Location: Tortoli
(39.9170°N, 9.6500°E)
Time: 06:11:53
(UTC+01:00)

ISS - Visible Passes

Search period start: 20 January 2019 00:00
Search period end: 30 January 2019 00:00
Orbit: 404 x 410 km, 51.6° (Epoch: 20 January)

Date Brightness Start Highest point End Pass type
(mag) Time Alt. Az. Time Alt. Az. Time Alt. Az.
20 Jan -1.5 19:33:47 10° SSW 19:34:52 19° SSW 19:34:52 19° SSW visible
21 Jan -2.5 18:43:00 10° S 18:45:42 24° SE 18:46:04 23° ESE visible
22 Jan -2.8 19:27:25 10° WSW 19:29:55 46° W 19:29:55 46° W visible
23 Jan -3.8 18:36:03 10° SW 18:39:19 64° SE 18:40:56 27° ENE visible
23 Jan -0.3 20:13:31 10° WNW 20:13:40 11° WNW 20:13:40 11° WNW visible
24 Jan -2.3 19:21:34 10° W 19:24:32 30° NNW 19:24:36 30° NNW visible
25 Jan -3.2 18:29:49 10° WSW 18:33:02 50° NNW 18:35:27 16° NE visible
26 Jan -1.7 19:16:08 10° WNW 19:18:30 18° NNW 19:18:57 18° N visible
27 Jan -2.0 18:24:04 10° W 18:26:52 25° NNW 18:29:41 10° NNE visible
28 Jan -1.3 19:10:53 10° NW 19:12:32 13° NNW 19:13:05 13° N visible
29 Jan -1.5 18:18:38 10° WNW 18:20:47 16° NNW 18:22:57 10° NNE visible
